星链-1539 (STARLINK-1539 )

导读

STARLINK-1539是美国太空探索技术公司SpaceX星链星座的成员,由美国在2020年8月7日发射入轨,归属星链互联网星座组网,旨在为全球提供低延迟、高速率的卫星互联网服务,该卫星运行在近地轨道,是星链大规模组网部署过程中的重要一环。

基本信息
目录编号:
46072
目录名称:
STARLINK-1539
国际标识:
2020-055AX
轨道中心:
EARTH
卫星名称:
星链-1539
卫星全名:
星链-1539 (STARLINK-1539 )
卫星状态:
已陨落 最后检测时间 2024-06-26
发射日期:
2020-08-07 UTC
国别 :
美国 (US)
星等 :
--
该卫星已列入 空间交会检测服务 Space Conjunction Data Service (SCDS) ,当前飞行风险评估等级: 无高风险
轨道信息
数据来源 国际轨道数据
星历时间: 2024-06-26T09:56:09+0800
轨道信息已过期808天
半长轴: 6579.574km
偏心率: 0.0008928
轨道倾角: 53.044°
近地点辐角 299.884°
升交点赤经 327.166°
平近点角 196.406°
近地点: 195.564km
远地点: 207.314km
周期: 88.523分钟
每日圈数: 16.266949
详细信息
固有亮度:
5
最大亮度:
2.5
卫星平台:
Starlink V1.0
覆盖范围:
全球
运营商:
太空探索技术公司
运营商所在国:
美国
制造商(研发单位):
太空探索技术公司
制造商所在国:
美国
使用方式:
暂无
卫星简介
星链(Starlink)计划是由太空探索技术公司(SpaceX)提出的一个巨型低轨卫星互联网星座项目,计划在2019年至2024年间在太空搭建由约1.2万颗卫星组成的“星链”网络,其中1584颗将部署在地球上空550千米处的近地轨道,并从2020年开始工作。该卫星已陨落。
与全量物体交会距离演化趋势
与全量物体交会风险概率演化趋势